This is the latest recevied weather packets stored in our database for station/object E23JWE-1. If no packets are shown the sender has not sent any weather packets the latest 10 day(s).
| Time | Temp. | Humidity | Pressure | Rain* | Wind** | Luminosity | Snow |
|---|---|---|---|---|---|---|---|
| 1788159814 | 92° F | 66% | 756.8 mmHg | - | - | 71 W/m² | - |
| 1788157988 | 92° F | 62% | 757.6 mmHg | - | - | 49 W/m² | - |
| 1788156163 | 91° F | 67% | 757.6 mmHg | - | - | 43 W/m² | - |
| 1788154337 | 91° F | 74% | 758.3 mmHg | - | - | 53 W/m² | - |
| 1788152511 | 89° F | 82% | 758.3 mmHg | - | - | 52 W/m² | - |
| 1788150686 | 90° F | 82% | 758.3 mmHg | - | - | 51 W/m² | - |
| 1788148859 | 89° F | 82% | 758.3 mmHg | - | - | 49 W/m² | - |
| 1788147436 | 89° F | 89% | 759.1 mmHg | - | - | 41 W/m² | - |
| 1788145609 | 89° F | 89% | 759.1 mmHg | - | - | 40 W/m² | - |
| 1788144852 | 89° F | 89% | 759.1 mmHg | - | - | 39 W/m² | - |
| 1788143027 | 89° F | 94% | 759.1 mmHg | - | - | 38 W/m² | - |
| 1788141201 | 89° F | 99% | 759.1 mmHg | - | - | 40 W/m² | - |
| 1788139376 | 88° F | 99% | 758.3 mmHg | - | - | 33 W/m² | - |
| 1788137549 | 88° F | 99% | 758.3 mmHg | - | - | 18 W/m² | - |
| 1788136275 | 87° F | 99% | 758.3 mmHg | - | - | 15 W/m² | - |
| 1788134450 | 86° F | 99% | 757.6 mmHg | - | - | 6 W/m² | - |
| 1788132624 | 86° F | 99% | 757.6 mmHg | - | - | 1 W/m² | - |
| 1788130799 | 87° F | 99% | 757.6 mmHg | - | - | 0 W/m² | - |
| 1788128973 | 89° F | 99% | 757.6 mmHg | - | - | 0 W/m² | - |
| 1788127147 | 89° F | 99% | 757.6 mmHg | - | - | 0 W/m² | - |
| 1788125322 | 90° F | 99% | 757.6 mmHg | - | - | 0 W/m² | - |
| 1788123496 | 90° F | 97% | 757.6 mmHg | - | - | 0 W/m² | - |
| 1788121671 | 88° F | 99% | 757.6 mmHg | - | - | 0 W/m² | - |
| 1788119845 | 90° F | 97% | 757.6 mmHg | - | - | 0 W/m² | - |
| 1788118020 | 90° F | 96% | 757.6 mmHg | - | - | 0 W/m² | - |
* Rain since midnight (hover to see other rain measurements)
** Current wind speed in m/s (hover to see current wind gust speed)